This is the latest recevied weather packets stored in our database for station/object DJ2DS-13. If no packets are shown the sender has not sent any weather packets the latest 10 day(s).
| Time | Temp. | Humidity | Pressure | Rain* | Wind** | Luminosity | Snow |
|---|---|---|---|---|---|---|---|
| 1777559703 | 18.33° C | 41% | 1028.2 hPa | 0 mm | - | 564 W/m² | - |
| 1777559402 | 18.33° C | 38% | 1028.4 hPa | 0 mm | - | 573 W/m² | - |
| 1777559102 | 18.33° C | 38% | 1028.4 hPa | 0 mm | - | 582 W/m² | - |
| 1777558802 | 18.33° C | 40% | 1028.5 hPa | 0 mm | - | 589 W/m² | - |
| 1777558503 | 18.33° C | 37% | 1028.5 hPa | 0 mm | - | 598 W/m² | - |
| 1777558201 | 18.33° C | 39% | 1028.6 hPa | 0 mm | - | 603 W/m² | - |
| 1777557903 | 18.33° C | 37% | 1028.6 hPa | 0 mm | - | 614 W/m² | - |
| 1777557602 | 18.33° C | 37% | 1028.6 hPa | 0 mm | - | 626 W/m² | - |
| 1777557300 | 18.33° C | 35% | 1028.7 hPa | 0 mm | - | 631 W/m² | - |
| 1777557000 | 18.33° C | 39% | 1028.8 hPa | 0 mm | - | 633 W/m² | - |
| 1777556699 | 18.33° C | 35% | 1028.9 hPa | 0 mm | - | 645 W/m² | - |
| 1777556399 | 18.33° C | 39% | 1028.9 hPa | 0 mm | - | 651 W/m² | - |
| 1777556099 | 17.78° C | 37% | 1028.9 hPa | 0 mm | - | 661 W/m² | - |
| 1777555795 | 17.78° C | 34% | 1028.9 hPa | 0 mm | - | 665 W/m² | - |
| 1777555496 | 18.33° C | 37% | 1029 hPa | 0 mm | - | 675 W/m² | - |
| 1777555195 | 18.33° C | 37% | 1029 hPa | 0 mm | - | 681 W/m² | - |
| 1777554895 | 18.33° C | 38% | 1029.1 hPa | 0 mm | - | 688 W/m² | - |
| 1777554595 | 18.33° C | 36% | 1029.2 hPa | 0 mm | - | 691 W/m² | - |
| 1777554293 | 18.33° C | 34% | 1029.2 hPa | 0 mm | - | 698 W/m² | - |
| 1777553994 | 17.78° C | 36% | 1029.3 hPa | 0 mm | - | 702 W/m² | - |
| 1777553694 | 18.33° C | 35% | 1029.3 hPa | 0 mm | - | 712 W/m² | - |
| 1777553393 | 18.33° C | 37% | 1029.3 hPa | 0 mm | - | 717 W/m² | - |
| 1777553093 | 18.33° C | 36% | 1029.3 hPa | 0 mm | - | 719 W/m² | - |
| 1777552791 | 17.78° C | 37% | 1029.4 hPa | 0 mm | - | 724 W/m² | - |
| 1777552491 | 17.78° C | 36% | 1029.5 hPa | 0 mm | - | 726 W/m² | - |
* Rain latest hour (hover to see other rain measurements)
** Current wind speed in m/s (hover to see current wind gust speed)